Time,TemperatureF,DewpointF,PressureIn,WindDirection,WindDirectionDegrees,WindSpeedMPH,WindSpeedGustMPH,Humidity,HourlyPrecipIn,Conditions,Clouds,dailyrainin,SoftwareType,DateUTC
2013-02-03 00:00:00,13.6,10.7,30.06,NNE,33,0.0,0.0,88,0.00,,,0.00,VWS V14.01,2013-02-03 05:00:00,
2013-02-03 00:03:00,13.6,11.0,30.06,NNE,33,0.0,0.0,89,0.00,,,0.00,VWS V14.01,2013-02-03 05:03:00,
2013-02-03 00:08:00,13.6,11.0,30.06,NNE,33,0.0,0.0,89,0.00,,,0.00,VWS V14.01,2013-02-03 05:08:00,
2013-02-03 00:13:00,13.6,11.0,30.06,NNE,33,0.0,0.0,89,0.00,,,0.00,VWS V14.01,2013-02-03 05:13:00,
2013-02-03 00:18:00,13.6,11.0,30.06,NNE,33,0.0,0.0,89,0.00,,,0.00,VWS V14.01,2013-02-03 05:18:00,
2013-02-03 00:23:00,13.6,11.0,30.06,NNE,33,0.0,0.0,89,0.00,,,0.00,VWS V14.01,2013-02-03 05:23:00,
2013-02-03 00:28:00,13.6,11.0,30.06,NNE,33,0.0,0.0,89,0.00,,,0.00,VWS V14.01,2013-02-03 05:28:00,
2013-02-03 00:33:00,13.6,11.0,30.06,NNE,33,0.0,0.0,89,0.00,,,0.00,VWS V14.01,2013-02-03 05:33:00,
2013-02-03 00:38:00,13.6,11.2,30.06,NNE,33,0.0,0.0,90,0.00,,,0.00,VWS V14.01,2013-02-03 05:38:00,
2013-02-03 00:43:00,13.6,11.2,30.05,NNE,33,0.0,0.0,90,0.00,,,0.00,VWS V14.01,2013-02-03 05:43:00,
2013-02-03 00:48:00,13.5,11.1,30.05,NNE,33,0.0,0.0,90,0.00,,,0.00,VWS V14.01,2013-02-03 05:48:00,
2013-02-03 00:53:00,13.5,11.1,30.05,NNE,33,0.0,0.0,90,0.00,,,0.00,VWS V14.01,2013-02-03 05:53:00,
2013-02-03 00:58:00,13.5,11.1,30.05,NNE,33,0.0,0.0,90,0.00,,,0.00,VWS V14.01,2013-02-03 05:58:00,
2013-02-03 01:03:00,13.5,11.1,30.05,NNE,33,0.0,0.0,90,0.00,,,0.00,VWS V14.01,2013-02-03 06:03:00,
2013-02-03 01:08:00,13.4,11.0,30.05,NNE,33,0.0,0.0,90,0.00,,,0.00,VWS V14.01,2013-02-03 06:08:00,
2013-02-03 01:13:00,13.4,11.0,30.04,NNE,33,0.0,0.0,90,0.00,,,0.00,VWS V14.01,2013-02-03 06:13:00,
2013-02-03 01:18:00,13.3,10.9,30.04,NNE,33,0.0,0.0,90,0.00,,,0.00,VWS V14.01,2013-02-03 06:18:00,
2013-02-03 01:23:00,13.2,10.8,30.04,NNE,33,0.0,0.0,90,0.00,,,0.00,VWS V14.01,2013-02-03 06:23:00,
2013-02-03 01:28:00,13.2,10.8,30.04,NNE,33,0.0,0.0,90,0.00,,,0.00,VWS V14.01,2013-02-03 06:28:00,
2013-02-03 01:33:00,13.2,10.8,30.03,NNE,33,0.0,0.0,90,0.00,,,0.00,VWS V14.01,2013-02-03 06:33:00,
2013-02-03 01:38:00,13.2,11.1,30.04,NNE,33,0.0,0.0,91,0.00,,,0.00,VWS V14.01,2013-02-03 06:38:00,
2013-02-03 01:43:00,13.3,11.2,30.03,NNE,33,0.0,1.0,91,0.00,,,0.00,VWS V14.01,2013-02-03 06:43:00,
2013-02-03 01:48:00,13.4,11.3,30.03,NNE,33,0.0,1.0,91,0.00,,,0.00,VWS V14.01,2013-02-03 06:48:00,
2013-02-03 01:53:00,13.4,11.3,30.03,NNE,33,0.0,1.0,91,0.00,,,0.00,VWS V14.01,2013-02-03 06:53:00,
2013-02-03 01:58:00,13.4,11.3,30.03,NNE,33,0.0,0.0,91,0.00,,,0.00,VWS V14.01,2013-02-03 06:58:00,
2013-02-03 02:03:00,13.5,11.4,30.02,NNE,33,0.0,0.0,91,0.00,,,0.00,VWS V14.01,2013-02-03 07:03:00,
2013-02-03 02:08:00,13.6,11.5,30.02,NNE,33,0.0,0.0,91,0.00,,,0.00,VWS V14.01,2013-02-03 07:08:00,
2013-02-03 02:13:00,13.7,11.6,30.02,NNE,33,0.0,0.0,91,0.00,,,0.00,VWS V14.01,2013-02-03 07:13:00,
2013-02-03 02:17:00,13.7,11.6,30.02,NNE,33,0.0,0.0,91,0.00,,,0.00,VWS V14.01,2013-02-03 07:17:00,
2013-02-03 02:22:00,13.8,11.7,30.02,NNE,33,0.0,0.0,91,0.00,,,0.00,VWS V14.01,2013-02-03 07:22:00,
2013-02-03 02:27:00,13.9,11.8,30.02,NNE,33,0.0,0.0,91,0.00,,,0.00,VWS V14.01,2013-02-03 07:27:00,
2013-02-03 02:32:00,14.0,12.1,30.02,NNE,33,0.0,0.0,92,0.00,,,0.00,VWS V14.01,2013-02-03 07:32:00,
2013-02-03 02:37:00,14.0,12.1,30.02,NNE,33,0.0,0.0,92,0.00,,,0.00,VWS V14.01,2013-02-03 07:37:00,
2013-02-03 02:42:00,14.1,12.2,30.02,NNE,33,0.0,0.0,92,0.00,,,0.00,VWS V14.01,2013-02-03 07:42:00,
2013-02-03 02:47:00,14.1,12.2,30.02,NNE,33,0.0,0.0,92,0.00,,,0.00,VWS V14.01,2013-02-03 07:47:00,
2013-02-03 02:52:00,14.1,12.2,30.02,NNE,33,0.0,0.0,92,0.00,,,0.00,VWS V14.01,2013-02-03 07:52:00,
2013-02-03 02:57:00,14.1,12.2,30.02,NNE,33,0.0,0.0,92,0.00,,,0.00,VWS V14.01,2013-02-03 07:57:00,
2013-02-03 03:02:00,14.3,12.4,30.02,NNE,33,0.0,0.0,92,0.00,,,0.00,VWS V14.01,2013-02-03 08:02:00,
2013-02-03 03:07:00,14.5,12.6,30.02,SSE,157,4.0,4.0,92,0.00,,,0.00,VWS V14.01,2013-02-03 08:07:00,
2013-02-03 03:12:00,14.8,12.9,30.02,South,182,0.0,4.0,92,0.00,,,0.00,VWS V14.01,2013-02-03 08:12:00,
2013-02-03 03:17:00,15.0,13.1,30.02,SSW,208,1.0,4.0,92,0.00,,,0.00,VWS V14.01,2013-02-03 08:17:00,
2013-02-03 03:22:00,15.2,13.3,30.01,SSW,208,2.0,4.0,92,0.00,,,0.00,VWS V14.01,2013-02-03 08:22:00,
2013-02-03 03:27:00,15.3,13.4,30.01,SSW,209,0.0,4.0,92,0.00,,,0.00,VWS V14.01,2013-02-03 08:27:00,
2013-02-03 03:32:00,15.3,13.4,30.01,SSW,209,1.0,3.0,92,0.00,,,0.00,VWS V14.01,2013-02-03 08:32:00,
2013-02-03 03:37:00,15.3,13.4,30.01,SSW,208,0.0,3.0,92,0.00,,,0.00,VWS V14.01,2013-02-03 08:37:00,
2013-02-03 03:42:00,15.3,13.4,30.00,SW,228,1.0,4.0,92,0.00,,,0.00,VWS V14.01,2013-02-03 08:42:00,
2013-02-03 03:47:00,15.3,13.4,30.00,SW,228,0.0,4.0,92,0.00,,,0.00,VWS V14.01,2013-02-03 08:47:00,
2013-02-03 03:52:00,15.3,13.4,30.00,SW,228,0.0,4.0,92,0.00,,,0.00,VWS V14.01,2013-02-03 08:52:00,
2013-02-03 03:57:00,15.3,13.4,30.00,SW,228,0.0,2.0,92,0.00,,,0.00,VWS V14.01,2013-02-03 08:57:00,
2013-02-03 04:02:00,15.2,13.3,30.00,SW,228,0.0,4.0,92,0.00,,,0.00,VWS V14.01,2013-02-03 09:02:00,
2013-02-03 04:07:00,15.2,13.3,29.99,SW,228,0.0,4.0,92,0.00,,,0.00,VWS V14.01,2013-02-03 09:07:00,
2013-02-03 04:12:00,15.1,13.2,29.99,SW,228,0.0,4.0,92,0.00,,,0.00,VWS V14.01,2013-02-03 09:12:00,
2013-02-03 04:17:00,15.0,13.1,29.99,SW,228,0.0,4.0,92,0.00,,,0.00,VWS V14.01,2013-02-03 09:17:00,
2013-02-03 04:22:00,15.0,13.1,29.99,SW,228,2.0,4.0,92,0.00,,,0.00,VWS V14.01,2013-02-03 09:22:00,
2013-02-03 04:27:00,15.0,13.1,29.99,SW,228,0.0,3.0,92,0.00,,,0.00,VWS V14.01,2013-02-03 09:27:00,
2013-02-03 04:32:00,15.0,13.1,29.98,SW,228,0.0,3.0,92,0.00,,,0.00,VWS V14.01,2013-02-03 09:32:00,
2013-02-03 04:37:00,15.0,13.1,29.98,SW,228,1.0,3.0,92,0.00,,,0.00,VWS V14.01,2013-02-03 09:37:00,
2013-02-03 04:42:00,14.9,13.0,29.98,SW,228,3.0,3.0,92,0.00,,,0.00,VWS V14.01,2013-02-03 09:42:00,
2013-02-03 04:47:00,14.9,12.8,29.98,WSW,238,1.0,3.0,91,0.00,,,0.00,VWS V14.01,2013-02-03 09:47:00,
2013-02-03 04:52:00,14.9,12.8,29.98,SSW,208,3.0,4.0,91,0.00,,,0.00,VWS V14.01,2013-02-03 09:52:00,
2013-02-03 04:57:00,14.8,12.6,29.97,WSW,243,3.0,5.0,91,0.00,,,0.00,VWS V14.01,2013-02-03 09:57:00,
2013-02-03 05:02:00,14.7,12.6,29.97,WSW,254,0.0,5.0,91,0.00,,,0.00,VWS V14.01,2013-02-03 10:02:00,
2013-02-03 05:07:00,14.7,12.6,29.97,SW,232,0.0,4.0,91,0.00,,,0.00,VWS V14.01,2013-02-03 10:07:00,
2013-02-03 05:12:00,14.6,12.5,29.97,SSW,207,2.0,4.0,91,0.00,,,0.00,VWS V14.01,2013-02-03 10:12:00,
2013-02-03 05:17:00,14.6,12.5,29.97,SSW,207,2.0,4.0,91,0.00,,,0.00,VWS V14.01,2013-02-03 10:17:00,
2013-02-03 05:22:00,14.5,12.4,29.97,SW,228,1.0,4.0,91,0.00,,,0.00,VWS V14.01,2013-02-03 10:22:00,
2013-02-03 05:27:00,14.4,12.3,29.97,SW,223,0.0,4.0,91,0.00,,,0.00,VWS V14.01,2013-02-03 10:27:00,
2013-02-03 05:32:00,14.3,12.2,29.97,WSW,251,0.0,3.0,91,0.00,,,0.00,VWS V14.01,2013-02-03 10:32:00,
2013-02-03 05:37:00,14.2,12.1,29.98,SW,234,1.0,3.0,91,0.00,,,0.00,VWS V14.01,2013-02-03 10:37:00,
2013-02-03 05:42:00,14.1,12.0,29.98,SW,220,0.0,4.0,91,0.00,,,0.00,VWS V14.01,2013-02-03 10:42:00,
2013-02-03 05:47:00,14.0,11.6,29.98,SW,227,2.0,4.0,90,0.00,,,0.00,VWS V14.01,2013-02-03 10:47:00,
2013-02-03 05:52:00,14.0,11.6,29.98,SW,221,4.0,4.0,90,0.00,,,0.00,VWS V14.01,2013-02-03 10:52:00,
2013-02-03 05:57:00,13.9,11.5,29.98,SSW,194,0.0,4.0,90,0.00,,,0.00,VWS V14.01,2013-02-03 10:57:00,
2013-02-03 06:02:00,13.8,11.4,29.98,SSW,205,1.0,4.0,90,0.00,,,0.00,VWS V14.01,2013-02-03 11:02:00,
2013-02-03 06:07:00,13.8,11.4,29.97,SSW,205,0.0,3.0,90,0.00,,,0.00,VWS V14.01,2013-02-03 11:07:00,
2013-02-03 06:12:00,13.7,11.3,29.97,SSW,205,0.0,3.0,90,0.00,,,0.00,VWS V14.01,2013-02-03 11:12:00,
2013-02-03 06:17:00,13.7,11.3,29.97,SSW,205,0.0,2.0,90,0.00,,,0.00,VWS V14.01,2013-02-03 11:17:00,
2013-02-03 06:22:00,13.6,11.2,29.97,SSW,205,0.0,3.0,90,0.00,,,0.00,VWS V14.01,2013-02-03 11:22:00,
2013-02-03 06:27:00,13.5,11.1,29.97,SSW,205,0.0,3.0,90,0.00,,,0.00,VWS V14.01,2013-02-03 11:27:00,
2013-02-03 06:32:00,13.5,11.1,29.97,SSW,205,0.0,3.0,90,0.00,,,0.00,VWS V14.01,2013-02-03 11:32:00,
2013-02-03 06:37:00,13.4,11.0,29.97,SSW,205,0.0,3.0,90,0.00,,,0.00,VWS V14.01,2013-02-03 11:37:00,
2013-02-03 06:42:00,13.4,11.0,29.97,SSW,205,0.0,2.0,90,0.00,,,0.00,VWS V14.01,2013-02-03 11:42:00,
2013-02-03 06:47:00,13.4,11.0,29.97,SSW,205,0.0,2.0,90,0.00,,,0.00,VWS V14.01,2013-02-03 11:47:00,
2013-02-03 06:52:00,13.3,10.9,29.96,SSW,205,0.0,2.0,90,0.00,,,0.00,VWS V14.01,2013-02-03 11:52:00,
2013-02-03 06:57:00,13.2,10.8,29.96,SSW,205,0.0,1.0,90,0.00,,,0.00,VWS V14.01,2013-02-03 11:57:00,
2013-02-03 07:02:00,13.2,10.8,29.96,SSW,205,2.0,3.0,90,0.00,,,0.00,VWS V14.01,2013-02-03 12:02:00,
2013-02-03 07:07:00,13.1,10.5,29.97,SW,215,1.0,4.0,89,0.00,,,0.00,VWS V14.01,2013-02-03 12:07:00,
2013-02-03 07:12:00,13.0,10.4,29.97,SW,215,0.0,4.0,89,0.00,,,0.00,VWS V14.01,2013-02-03 12:12:00,
2013-02-03 07:17:00,13.0,10.4,29.97,SW,215,0.0,4.0,89,0.00,,,0.00,VWS V14.01,2013-02-03 12:17:00,
2013-02-03 07:22:00,12.9,10.3,29.98,SW,215,0.0,3.0,89,0.00,,,0.00,VWS V14.01,2013-02-03 12:22:00,
2013-02-03 07:27:00,12.8,10.2,29.98,SW,215,3.0,3.0,89,0.00,,,0.00,VWS V14.01,2013-02-03 12:27:00,
2013-02-03 07:32:00,12.8,10.2,29.98,SW,215,2.0,4.0,89,0.00,,,0.00,VWS V14.01,2013-02-03 12:32:00,
2013-02-03 07:37:00,12.7,10.1,29.98,SSW,204,3.0,4.0,89,0.00,,,0.00,VWS V14.01,2013-02-03 12:37:00,
2013-02-03 07:42:00,12.6,10.0,29.98,SW,221,2.0,5.0,89,0.00,,,0.00,VWS V14.01,2013-02-03 12:42:00,
2013-02-03 07:47:00,12.5,9.9,29.98,WSW,250,4.0,5.0,89,0.00,,,0.00,VWS V14.01,2013-02-03 12:47:00,
2013-02-03 07:52:00,12.5,9.9,29.98,SW,214,2.0,6.0,89,0.00,,,0.00,VWS V14.01,2013-02-03 12:52:00,
2013-02-03 07:57:00,12.3,9.7,29.98,WSW,240,0.0,6.0,89,0.00,,,0.00,VWS V14.01,2013-02-03 12:57:00,
2013-02-03 08:02:00,12.3,9.4,29.99,SW,231,2.0,6.0,88,0.00,,,0.00,VWS V14.01,2013-02-03 13:02:00,
2013-02-03 08:07:00,12.3,9.4,29.99,SW,215,2.0,6.0,88,0.00,,,0.00,VWS V14.01,2013-02-03 13:07:00,
2013-02-03 08:12:00,12.3,9.4,29.99,SW,231,2.0,6.0,88,0.00,,,0.00,VWS V14.01,2013-02-03 13:12:00,
2013-02-03 08:17:00,12.2,9.3,29.99,WSW,244,1.0,6.0,88,0.00,,,0.00,VWS V14.01,2013-02-03 13:17:00,
2013-02-03 08:22:00,12.3,9.4,29.99,SSW,207,1.0,6.0,88,0.00,,,0.00,VWS V14.01,2013-02-03 13:22:00,
2013-02-03 08:27:00,12.2,9.3,30.00,SW,232,1.0,6.0,88,0.00,,,0.00,VWS V14.01,2013-02-03 13:27:00,
2013-02-03 08:32:00,12.3,9.4,29.99,WSW,240,2.0,6.0,88,0.00,,,0.00,VWS V14.01,2013-02-03 13:32:00,
2013-02-03 08:37:00,12.3,9.4,29.99,SSW,198,1.0,6.0,88,0.00,,,0.00,VWS V14.01,2013-02-03 13:37:00,
2013-02-03 08:42:00,12.3,9.4,29.99,SW,216,2.0,6.0,88,0.00,,,0.00,VWS V14.01,2013-02-03 13:42:00,
2013-02-03 08:47:00,12.3,9.4,29.99,WSW,238,0.0,5.0,88,0.00,,,0.00,VWS V14.01,2013-02-03 13:47:00,
2013-02-03 08:51:00,12.4,9.5,29.99,WSW,238,4.0,6.0,88,0.00,,,0.00,VWS V14.01,2013-02-03 13:51:00,
2013-02-03 08:57:00,12.5,9.6,29.99,SSW,211,6.0,7.0,88,0.00,,,0.00,VWS V14.01,2013-02-03 13:57:00,
2013-02-03 09:01:00,12.5,9.6,29.99,SW,228,0.0,7.0,88,0.00,,,0.00,VWS V14.01,2013-02-03 14:01:00,
2013-02-03 09:06:00,12.6,9.7,29.99,SSW,194,3.0,7.0,88,0.00,,,0.00,VWS V14.01,2013-02-03 14:06:00,
2013-02-03 09:11:00,12.6,9.7,29.99,SW,225,7.0,7.0,88,0.00,,,0.00,VWS V14.01,2013-02-03 14:11:00,
2013-02-03 09:16:00,12.6,9.7,29.99,WSW,240,3.0,7.0,88,0.00,,,0.00,VWS V14.01,2013-02-03 14:16:00,
2013-02-03 09:21:00,12.7,9.8,29.99,SW,229,2.0,7.0,88,0.00,,,0.00,VWS V14.01,2013-02-03 14:21:00,
2013-02-03 09:26:00,12.6,9.7,29.99,SSW,213,4.0,5.0,88,0.00,,,0.00,VWS V14.01,2013-02-03 14:26:00,
2013-02-03 09:31:00,12.5,9.6,29.99,WSW,245,0.0,5.0,88,0.00,,,0.00,VWS V14.01,2013-02-03 14:31:00,
2013-02-03 09:36:00,12.5,9.9,29.98,SSW,205,2.0,5.0,89,0.00,,,0.00,VWS V14.01,2013-02-03 14:36:00,
2013-02-03 09:41:00,12.5,9.9,29.99,SW,216,4.0,6.0,89,0.00,,,0.00,VWS V14.01,2013-02-03 14:41:00,
2013-02-03 09:46:00,12.5,9.9,29.99,South,172,4.0,6.0,89,0.00,,,0.00,VWS V14.01,2013-02-03 14:46:00,
2013-02-03 09:51:00,12.6,10.0,29.99,South,173,1.0,7.0,89,0.00,,,0.00,VWS V14.01,2013-02-03 14:51:00,
2013-02-03 09:56:00,12.7,10.3,29.98,SW,221,2.0,7.0,90,0.00,,,0.00,VWS V14.01,2013-02-03 14:56:00,
2013-02-03 10:01:00,12.9,10.5,29.98,SW,215,6.0,6.0,90,0.00,,,0.00,VWS V14.01,2013-02-03 15:01:00,
2013-02-03 10:06:00,13.1,10.7,29.98,SW,229,2.0,6.0,90,0.00,,,0.00,VWS V14.01,2013-02-03 15:06:00,
2013-02-03 10:11:00,13.3,10.9,29.98,SW,227,3.0,6.0,90,0.00,,,0.00,VWS V14.01,2013-02-03 15:11:00,
2013-02-03 10:16:00,13.5,11.1,29.99,SW,227,7.0,7.0,90,0.00,,,0.00,VWS V14.01,2013-02-03 15:16:00,
2013-02-03 10:21:00,13.7,11.3,29.98,SSW,211,2.0,7.0,90,0.00,,,0.00,VWS V14.01,2013-02-03 15:21:00,
2013-02-03 10:26:00,13.8,11.4,29.99,SW,219,6.0,7.0,90,0.00,,,0.00,VWS V14.01,2013-02-03 15:26:00,
2013-02-03 10:31:00,13.9,11.5,29.99,SW,233,3.0,7.0,90,0.00,,,0.00,VWS V14.01,2013-02-03 15:31:00,
2013-02-03 10:36:00,14.0,11.6,29.99,West,280,2.0,6.0,90,0.00,,,0.00,VWS V14.01,2013-02-03 15:36:00,
2013-02-03 10:41:00,14.1,12.0,29.99,West,261,1.0,6.0,91,0.00,,,0.00,VWS V14.01,2013-02-03 15:41:00,
2013-02-03 10:46:00,14.2,12.1,29.99,WSW,248,3.0,7.0,91,0.00,,,0.00,VWS V14.01,2013-02-03 15:46:00,
2013-02-03 10:51:00,14.3,12.2,29.99,SW,221,2.0,7.0,91,0.00,,,0.00,VWS V14.01,2013-02-03 15:51:00,
2013-02-03 10:56:00,14.4,12.3,29.99,SSW,195,4.0,9.0,91,0.00,,,0.00,VWS V14.01,2013-02-03 15:56:00,
2013-02-03 11:01:00,14.5,12.4,29.99,WSW,243,3.0,9.0,91,0.00,,,0.00,VWS V14.01,2013-02-03 16:01:00,
2013-02-03 11:06:00,14.7,12.6,29.99,SW,229,2.0,9.0,91,0.00,,,0.00,VWS V14.01,2013-02-03 16:06:00,
2013-02-03 11:11:00,15.0,12.9,29.99,WSW,244,3.0,9.0,91,0.00,,,0.00,VWS V14.01,2013-02-03 16:11:00,
2013-02-03 11:16:00,15.2,13.1,29.99,SW,226,3.0,9.0,91,0.00,,,0.00,VWS V14.01,2013-02-03 16:16:00,
2013-02-03 11:21:00,15.4,13.2,29.99,SW,227,2.0,9.0,91,0.00,,,0.00,VWS V14.01,2013-02-03 16:21:00,
2013-02-03 11:26:00,15.5,13.4,29.99,WSW,238,3.0,7.0,91,0.00,,,0.00,VWS V14.01,2013-02-03 16:26:00,
2013-02-03 11:31:00,15.6,13.4,29.98,SSW,200,4.0,7.0,91,0.00,,,0.00,VWS V14.01,2013-02-03 16:31:00,
2013-02-03 11:36:00,15.9,13.7,29.99,SW,219,5.0,7.0,91,0.00,,,0.00,VWS V14.01,2013-02-03 16:36:00,
2013-02-03 11:41:00,16.1,13.9,29.99,SW,231,5.0,7.0,91,0.00,,,0.00,VWS V14.01,2013-02-03 16:41:00,
2013-02-03 11:46:00,16.2,14.0,29.99,SSW,211,4.0,10.0,91,0.00,,,0.00,VWS V14.01,2013-02-03 16:46:00,
2013-02-03 11:51:00,16.7,14.8,29.99,SSW,194,7.0,10.0,92,0.00,,,0.00,VWS V14.01,2013-02-03 16:51:00,
2013-02-03 11:56:00,16.7,14.5,29.99,SW,221,3.0,10.0,91,0.00,,,0.00,VWS V14.01,2013-02-03 16:56:00,
2013-02-03 12:01:00,17.1,14.9,29.98,SW,223,2.0,8.0,91,0.00,,,0.00,VWS V14.01,2013-02-03 17:01:00,
2013-02-03 12:06:00,17.7,15.8,29.98,SW,233,6.0,8.0,92,0.00,,,0.00,VWS V14.01,2013-02-03 17:06:00,
2013-02-03 12:11:00,18.0,15.8,29.99,SW,216,2.0,7.0,91,0.00,,,0.00,VWS V14.01,2013-02-03 17:11:00,
2013-02-03 12:16:00,18.3,16.4,29.98,SW,229,3.0,6.0,92,0.00,,,0.00,VWS V14.01,2013-02-03 17:16:00,
2013-02-03 12:21:00,18.5,16.3,29.98,SW,232,3.0,6.0,91,0.00,,,0.00,VWS V14.01,2013-02-03 17:21:00,
2013-02-03 12:26:00,18.6,16.4,29.98,SW,221,2.0,6.0,91,0.00,,,0.00,VWS V14.01,2013-02-03 17:26:00,
2013-02-03 12:31:00,18.9,17.0,29.98,SW,223,3.0,6.0,92,0.00,,,0.00,VWS V14.01,2013-02-03 17:31:00,
2013-02-03 12:36:00,19.1,17.2,29.98,West,265,1.0,6.0,92,0.00,,,0.00,VWS V14.01,2013-02-03 17:36:00,
2013-02-03 12:41:00,19.4,17.5,29.97,SSW,209,3.0,7.0,92,0.00,,,0.00,VWS V14.01,2013-02-03 17:41:00,
2013-02-03 12:46:00,19.6,17.7,29.98,West,272,2.0,7.0,92,0.00,,,0.00,VWS V14.01,2013-02-03 17:46:00,
2013-02-03 12:51:00,19.8,17.9,29.97,West,261,2.0,7.0,92,0.00,,,0.00,VWS V14.01,2013-02-03 17:51:00,
2013-02-03 12:56:00,20.1,18.4,29.97,West,263,1.0,5.0,93,0.00,,,0.00,VWS V14.01,2013-02-03 17:56:00,
2013-02-03 13:01:00,20.3,18.4,29.98,SW,236,0.0,4.0,92,0.00,,,0.00,VWS V14.01,2013-02-03 18:01:00,
2013-02-03 13:06:00,20.3,18.4,29.97,WNW,282,1.0,6.0,92,0.00,,,0.00,VWS V14.01,2013-02-03 18:06:00,
2013-02-03 13:11:00,20.3,18.4,29.98,SW,228,3.0,6.0,92,0.00,,,0.00,VWS V14.01,2013-02-03 18:11:00,
2013-02-03 13:16:00,20.2,18.2,29.98,SW,214,1.0,6.0,92,0.00,,,0.00,VWS V14.01,2013-02-03 18:16:00,
2013-02-03 13:21:00,20.2,18.2,29.97,WSW,243,0.0,6.0,92,0.00,,,0.00,VWS V14.01,2013-02-03 18:21:00,
2013-02-03 13:26:00,20.2,18.2,29.97,SW,233,4.0,6.0,92,0.00,,,0.00,VWS V14.01,2013-02-03 18:26:00,
2013-02-03 13:31:00,20.3,18.4,29.97,West,260,1.0,5.0,92,0.00,,,0.00,VWS V14.01,2013-02-03 18:31:00,
2013-02-03 13:36:00,20.6,18.9,29.98,West,259,4.0,7.0,93,0.00,,,0.00,VWS V14.01,2013-02-03 18:36:00,
2013-02-03 13:41:00,20.9,19.2,29.98,West,279,2.0,7.0,93,0.00,,,0.00,VWS V14.01,2013-02-03 18:41:00,
2013-02-03 13:46:00,21.2,19.5,29.97,WSW,244,5.0,7.0,93,0.00,,,0.00,VWS V14.01,2013-02-03 18:46:00,
2013-02-03 13:51:00,21.5,19.8,29.97,West,278,6.0,6.0,93,0.00,,,0.00,VWS V14.01,2013-02-03 18:51:00,
2013-02-03 13:56:00,21.6,19.9,29.97,West,259,0.0,6.0,93,0.00,,,0.00,VWS V14.01,2013-02-03 18:56:00,
2013-02-03 14:01:00,21.7,19.7,29.98,West,261,14.0,14.0,92,0.00,,,0.00,VWS V14.01,2013-02-03 19:01:00,
2013-02-03 14:06:00,21.7,19.7,29.97,West,261,5.0,14.0,92,0.00,,,0.00,VWS V14.01,2013-02-03 19:06:00,
2013-02-03 14:11:00,21.7,19.7,29.98,WSW,251,2.0,14.0,92,0.00,,,0.00,VWS V14.01,2013-02-03 19:11:00,
2013-02-03 14:16:00,21.6,19.6,29.98,WNW,294,4.0,11.0,92,0.00,,,0.00,VWS V14.01,2013-02-03 19:16:00,
2013-02-03 14:21:00,21.6,19.6,29.98,NW,319,9.0,10.0,92,0.00,,,0.00,VWS V14.01,2013-02-03 19:21:00,
2013-02-03 14:26:00,21.4,19.2,29.98,SW,229,6.0,11.0,91,0.00,,,0.00,VWS V14.01,2013-02-03 19:26:00,
2013-02-03 14:31:00,21.3,19.3,29.98,West,275,12.0,12.0,92,0.00,,,0.00,VWS V14.01,2013-02-03 19:31:00,
2013-02-03 14:35:00,21.1,18.9,29.98,West,279,5.0,13.0,91,0.00,,,0.00,VWS V14.01,2013-02-03 19:35:00,
2013-02-03 14:40:00,21.2,19.2,29.99,West,277,2.0,13.0,92,0.00,,,0.00,VWS V14.01,2013-02-03 19:40:00,
2013-02-03 14:45:00,21.2,19.2,29.99,West,280,7.0,13.0,92,0.00,,,0.00,VWS V14.01,2013-02-03 19:45:00,
2013-02-03 14:50:00,21.1,19.1,29.99,WSW,247,6.0,12.0,92,0.00,,,0.00,VWS V14.01,2013-02-03 19:50:00,
2013-02-03 14:55:00,21.0,19.0,29.99,WNW,295,4.0,12.0,92,0.00,,,0.00,VWS V14.01,2013-02-03 19:55:00,
2013-02-03 15:00:00,20.9,19.0,29.99,NW,317,8.0,10.0,92,0.00,,,0.00,VWS V14.01,2013-02-03 20:00:00,
2013-02-03 15:05:00,20.9,19.0,29.99,NW,306,3.0,11.0,92,0.00,,,0.00,VWS V14.01,2013-02-03 20:05:00,
2013-02-03 15:10:00,20.7,18.8,30.00,WNW,286,6.0,11.0,92,0.00,,,0.00,VWS V14.01,2013-02-03 20:10:00,
2013-02-03 15:15:00,20.7,18.5,30.00,WNW,298,5.0,14.0,91,0.00,,,0.00,VWS V14.01,2013-02-03 20:15:00,
2013-02-03 15:20:00,20.7,18.5,30.01,NW,326,5.0,14.0,91,0.00,,,0.00,VWS V14.01,2013-02-03 20:20:00,
2013-02-03 15:25:00,20.7,18.2,30.01,West,261,7.0,10.0,90,0.00,,,0.00,VWS V14.01,2013-02-03 20:25:00,
2013-02-03 15:30:00,20.7,18.2,30.01,NNW,343,2.0,10.0,90,0.00,,,0.00,VWS V14.01,2013-02-03 20:30:00,
2013-02-03 15:35:00,20.6,17.9,30.01,West,277,4.0,11.0,89,0.00,,,0.00,VWS V14.01,2013-02-03 20:35:00,
2013-02-03 15:40:00,20.7,18.0,30.01,WNW,298,4.0,11.0,89,0.00,,,0.00,VWS V14.01,2013-02-03 20:40:00,
2013-02-03 15:45:00,20.9,18.2,30.01,WSW,258,1.0,10.0,89,0.00,,,0.00,VWS V14.01,2013-02-03 20:45:00,
2013-02-03 15:50:00,20.8,17.8,30.02,NW,325,3.0,10.0,88,0.00,,,0.00,VWS V14.01,2013-02-03 20:50:00,
2013-02-03 15:55:00,20.9,17.9,30.02,WNW,291,3.0,10.0,88,0.00,,,0.00,VWS V14.01,2013-02-03 20:55:00,
2013-02-03 16:00:00,20.9,17.9,30.02,West,262,8.0,10.0,88,0.00,,,0.00,VWS V14.01,2013-02-03 21:00:00,
2013-02-03 16:05:00,20.9,17.9,30.02,West,271,3.0,13.0,88,0.00,,,0.00,VWS V14.01,2013-02-03 21:05:00,
2013-02-03 16:10:00,20.8,17.8,30.02,North,5,2.0,13.0,88,0.00,,,0.00,VWS V14.01,2013-02-03 21:10:00,
2013-02-03 16:15:00,20.7,17.7,30.02,WNW,285,4.0,13.0,88,0.00,,,0.00,VWS V14.01,2013-02-03 21:15:00,
2013-02-03 16:20:00,20.7,17.5,30.02,WNW,293,2.0,11.0,87,0.00,,,0.00,VWS V14.01,2013-02-03 21:20:00,
2013-02-03 16:25:00,20.7,17.5,30.02,WSW,255,4.0,11.0,87,0.00,,,0.00,VWS V14.01,2013-02-03 21:25:00,
2013-02-03 16:30:00,20.8,17.3,30.03,NW,324,3.0,11.0,86,0.00,,,0.00,VWS V14.01,2013-02-03 21:30:00,
2013-02-03 16:35:00,20.9,17.1,30.03,NW,313,7.0,12.0,85,0.00,,,0.00,VWS V14.01,2013-02-03 21:35:00,
2013-02-03 16:40:00,21.0,16.9,30.03,North,5,4.0,12.0,84,0.00,,,0.00,VWS V14.01,2013-02-03 21:40:00,
2013-02-03 16:45:00,21.1,16.8,30.03,WNW,300,4.0,13.0,83,0.00,,,0.00,VWS V14.01,2013-02-03 21:45:00,
2013-02-03 16:50:00,21.2,16.9,30.03,West,269,5.0,13.0,83,0.00,,,0.00,VWS V14.01,2013-02-03 21:50:00,
2013-02-03 16:55:00,21.2,16.6,30.03,NW,313,3.0,13.0,82,0.00,,,0.00,VWS V14.01,2013-02-03 21:55:00,
2013-02-03 17:00:00,21.2,16.3,30.03,West,273,2.0,10.0,81,0.00,,,0.00,VWS V14.01,2013-02-03 22:00:00,
2013-02-03 17:05:00,21.1,16.2,30.03,WNW,298,3.0,10.0,81,0.00,,,0.00,VWS V14.01,2013-02-03 22:05:00,
2013-02-03 17:10:00,21.0,16.1,30.03,West,259,5.0,14.0,81,0.00,,,0.00,VWS V14.01,2013-02-03 22:10:00,
2013-02-03 17:15:00,21.0,15.8,30.03,NW,322,8.0,14.0,80,0.00,,,0.00,VWS V14.01,2013-02-03 22:15:00,
2013-02-03 17:20:00,21.0,15.8,30.04,NW,311,4.0,11.0,80,0.00,,,0.00,VWS V14.01,2013-02-03 22:20:00,
2013-02-03 17:25:00,21.0,15.8,30.04,NNW,336,2.0,11.0,80,0.00,,,0.00,VWS V14.01,2013-02-03 22:25:00,
2013-02-03 17:30:00,21.1,15.9,30.04,West,278,4.0,10.0,80,0.00,,,0.00,VWS V14.01,2013-02-03 22:30:00,
2013-02-03 17:35:00,21.0,15.8,30.04,West,278,5.0,11.0,80,0.00,,,0.00,VWS V14.01,2013-02-03 22:35:00,
2013-02-03 17:40:00,21.0,15.8,30.04,West,281,1.0,11.0,80,0.00,,,0.00,VWS V14.01,2013-02-03 22:40:00,
2013-02-03 17:45:00,21.0,15.8,30.04,West,275,5.0,11.0,80,0.00,,,0.00,VWS V14.01,2013-02-03 22:45:00,
2013-02-03 17:50:00,20.9,15.7,30.03,WNW,301,0.0,6.0,80,0.00,,,0.00,VWS V14.01,2013-02-03 22:50:00,
2013-02-03 17:55:00,20.9,15.7,30.03,West,267,2.0,6.0,80,0.00,,,0.00,VWS V14.01,2013-02-03 22:55:00,
2013-02-03 18:00:00,20.9,15.7,30.04,WSW,254,3.0,6.0,80,0.00,,,0.00,VWS V14.01,2013-02-03 23:00:00,
2013-02-03 18:05:00,20.8,15.6,30.04,West,279,2.0,10.0,80,0.00,,,0.00,VWS V14.01,2013-02-03 23:05:00,
2013-02-03 18:10:00,20.9,15.7,30.04,WSW,257,1.0,10.0,80,0.00,,,0.00,VWS V14.01,2013-02-03 23:10:00,
2013-02-03 18:15:00,20.9,15.7,30.04,WSW,243,1.0,10.0,80,0.00,,,0.00,VWS V14.01,2013-02-03 23:15:00,
2013-02-03 18:20:00,20.9,15.7,30.04,West,277,1.0,8.0,80,0.00,,,0.00,VWS V14.01,2013-02-03 23:20:00,
2013-02-03 18:25:00,20.8,15.6,30.04,West,277,0.0,8.0,80,0.00,,,0.00,VWS V14.01,2013-02-03 23:25:00,
2013-02-03 18:30:00,20.7,15.5,30.04,WNW,300,1.0,8.0,80,0.00,,,0.00,VWS V14.01,2013-02-03 23:30:00,
2013-02-03 18:35:00,20.7,15.5,30.04,WNW,284,0.0,5.0,80,0.00,,,0.00,VWS V14.01,2013-02-03 23:35:00,
2013-02-03 18:40:00,20.7,15.5,30.04,WSW,252,2.0,5.0,80,0.00,,,0.00,VWS V14.01,2013-02-03 23:40:00,
2013-02-03 18:45:00,20.6,15.4,30.05,West,269,3.0,5.0,80,0.00,,,0.00,VWS V14.01,2013-02-03 23:45:00,
2013-02-03 18:50:00,20.7,15.8,30.05,WSW,248,2.0,5.0,81,0.00,,,0.00,VWS V14.01,2013-02-03 23:50:00,
2013-02-03 18:55:00,20.7,15.8,30.05,West,271,1.0,5.0,81,0.00,,,0.00,VWS V14.01,2013-02-03 23:55:00,
2013-02-03 19:00:00,20.7,15.5,30.05,WNW,294,0.0,5.0,80,0.00,,,0.00,VWS V14.01,2013-02-04 00:00:00,
2013-02-03 19:05:00,20.6,15.4,30.05,West,261,0.0,3.0,80,0.00,,,0.00,VWS V14.01,2013-02-04 00:05:00,
2013-02-03 19:10:00,20.6,15.4,30.05,SW,236,3.0,5.0,80,0.00,,,0.00,VWS V14.01,2013-02-04 00:10:00,
2013-02-03 19:15:00,20.6,15.4,30.06,SW,223,3.0,6.0,80,0.00,,,0.00,VWS V14.01,2013-02-04 00:15:00,
2013-02-03 19:20:00,20.6,15.1,30.05,SW,225,2.0,6.0,79,0.00,,,0.00,VWS V14.01,2013-02-04 00:20:00,
2013-02-03 19:25:00,20.5,15.0,30.06,SW,221,1.0,6.0,79,0.00,,,0.00,VWS V14.01,2013-02-04 00:25:00,
2013-02-03 19:30:00,20.4,14.9,30.05,SW,229,2.0,5.0,79,0.00,,,0.00,VWS V14.01,2013-02-04 00:30:00,
2013-02-03 19:35:00,20.3,14.8,30.06,SW,215,1.0,4.0,79,0.00,,,0.00,VWS V14.01,2013-02-04 00:35:00,
2013-02-03 19:40:00,20.1,14.6,30.05,West,278,1.0,4.0,79,0.00,,,0.00,VWS V14.01,2013-02-04 00:40:00,
2013-02-03 19:45:00,20.1,14.9,30.05,WSW,237,0.0,4.0,80,0.00,,,0.00,VWS V14.01,2013-02-04 00:45:00,
2013-02-03 19:50:00,20.0,14.8,30.05,WSW,237,0.0,4.0,80,0.00,,,0.00,VWS V14.01,2013-02-04 00:50:00,
2013-02-03 19:55:00,19.9,14.7,30.05,SW,216,2.0,4.0,80,0.00,,,0.00,VWS V14.01,2013-02-04 00:55:00,
2013-02-03 20:00:00,19.8,14.6,30.05,SW,229,2.0,5.0,80,0.00,,,0.00,VWS V14.01,2013-02-04 01:00:00,
2013-02-03 20:05:00,19.8,14.6,30.06,West,277,2.0,5.0,80,0.00,,,0.00,VWS V14.01,2013-02-04 01:05:00,
2013-02-03 20:10:00,19.7,14.5,30.06,SW,218,4.0,6.0,80,0.00,,,0.00,VWS V14.01,2013-02-04 01:10:00,
2013-02-03 20:15:00,19.7,14.5,30.06,SW,229,1.0,6.0,80,0.00,,,0.00,VWS V14.01,2013-02-04 01:15:00,
2013-02-03 20:20:00,19.7,14.5,30.06,West,259,0.0,6.0,80,0.00,,,0.00,VWS V14.01,2013-02-04 01:20:00,
2013-02-03 20:25:00,19.7,14.5,30.06,SW,229,0.0,6.0,80,0.00,,,0.00,VWS V14.01,2013-02-04 01:25:00,
2013-02-03 20:30:00,19.6,14.4,30.06,SSW,212,2.0,4.0,80,0.00,,,0.00,VWS V14.01,2013-02-04 01:30:00,
2013-02-03 20:35:00,19.5,14.4,30.06,SSW,192,0.0,5.0,80,0.00,,,0.00,VWS V14.01,2013-02-04 01:35:00,
2013-02-03 20:40:00,19.5,14.4,30.06,WSW,243,2.0,5.0,80,0.00,,,0.00,VWS V14.01,2013-02-04 01:40:00,
2013-02-03 20:45:00,19.5,14.6,30.06,WSW,243,0.0,5.0,81,0.00,,,0.00,VWS V14.01,2013-02-04 01:45:00,
2013-02-03 20:50:00,19.4,14.5,30.05,WSW,244,1.0,6.0,81,0.00,,,0.00,VWS V14.01,2013-02-04 01:50:00,
2013-02-03 20:55:00,19.4,14.5,30.06,SW,233,2.0,6.0,81,0.00,,,0.00,VWS V14.01,2013-02-04 01:55:00,
2013-02-03 20:59:00,19.4,14.5,30.06,SSW,211,2.0,4.0,81,0.00,,,0.00,VWS V14.01,2013-02-04 01:59:00,
2013-02-03 21:04:00,19.3,14.4,30.06,SW,223,8.0,8.0,81,0.00,,,0.00,VWS V14.01,2013-02-04 02:04:00,
2013-02-03 21:09:00,19.3,14.1,30.06,WSW,246,1.0,8.0,80,0.00,,,0.00,VWS V14.01,2013-02-04 02:09:00,
2013-02-03 21:14:00,19.3,14.4,30.06,SW,225,4.0,8.0,81,0.00,,,0.00,VWS V14.01,2013-02-04 02:14:00,
2013-02-03 21:19:00,19.3,14.4,30.07,WSW,254,2.0,6.0,81,0.00,,,0.00,VWS V14.01,2013-02-04 02:19:00,
2013-02-03 21:24:00,19.3,14.4,30.07,SW,224,3.0,6.0,81,0.00,,,0.00,VWS V14.01,2013-02-04 02:24:00,
2013-02-03 21:29:00,19.3,14.4,30.06,SW,226,0.0,6.0,81,0.00,,,0.00,VWS V14.01,2013-02-04 02:29:00,
2013-02-03 21:34:00,19.3,14.4,30.07,SSW,200,2.0,7.0,81,0.00,,,0.00,VWS V14.01,2013-02-04 02:34:00,
2013-02-03 21:39:00,19.3,14.4,30.07,SW,221,5.0,7.0,81,0.00,,,0.00,VWS V14.01,2013-02-04 02:39:00,
2013-02-03 21:44:00,19.3,14.4,30.07,WSW,248,2.0,7.0,81,0.00,,,0.00,VWS V14.01,2013-02-04 02:44:00,
2013-02-03 21:49:00,19.3,14.4,30.07,SW,218,5.0,5.0,81,0.00,,,0.00,VWS V14.01,2013-02-04 02:49:00,
2013-02-03 21:54:00,19.3,14.4,30.07,South,184,3.0,5.0,81,0.00,,,0.00,VWS V14.01,2013-02-04 02:54:00,
2013-02-03 21:59:00,19.3,14.4,30.07,SSW,198,4.0,5.0,81,0.00,,,0.00,VWS V14.01,2013-02-04 02:59:00,
2013-02-03 22:04:00,19.3,14.4,30.07,SW,233,3.0,5.0,81,0.00,,,0.00,VWS V14.01,2013-02-04 03:04:00,
2013-02-03 22:09:00,19.3,14.4,30.07,SE,146,1.0,5.0,81,0.00,,,0.00,VWS V14.01,2013-02-04 03:09:00,
2013-02-03 22:14:00,19.3,14.7,30.07,SSE,157,0.0,5.0,82,0.00,,,0.00,VWS V14.01,2013-02-04 03:14:00,
2013-02-03 22:19:00,19.3,14.7,30.07,SW,225,1.0,3.0,82,0.00,,,0.00,VWS V14.01,2013-02-04 03:19:00,
2013-02-03 22:24:00,19.2,14.6,30.07,SW,225,1.0,4.0,82,0.00,,,0.00,VWS V14.01,2013-02-04 03:24:00,
2013-02-03 22:29:00,19.1,14.5,30.07,SSE,160,1.0,4.0,82,0.00,,,0.00,VWS V14.01,2013-02-04 03:29:00,
2013-02-03 22:34:00,19.1,14.2,30.06,SSW,196,1.0,5.0,81,0.00,,,0.00,VWS V14.01,2013-02-04 03:34:00,
2013-02-03 22:39:00,19.1,14.5,30.07,SSE,159,2.0,5.0,82,0.00,,,0.00,VWS V14.01,2013-02-04 03:39:00,
2013-02-03 22:44:00,19.0,14.4,30.07,SW,224,2.0,4.0,82,0.00,,,0.00,VWS V14.01,2013-02-04 03:44:00,
2013-02-03 22:49:00,18.8,14.2,30.07,SW,224,0.0,4.0,82,0.00,,,0.00,VWS V14.01,2013-02-04 03:49:00,
2013-02-03 22:54:00,18.7,14.1,30.08,SW,224,1.0,3.0,82,0.00,,,0.00,VWS V14.01,2013-02-04 03:54:00,
2013-02-03 22:59:00,18.5,14.2,30.08,SSW,208,1.0,4.0,83,0.00,,,0.00,VWS V14.01,2013-02-04 03:59:00,
2013-02-03 23:04:00,18.5,14.2,30.07,SSW,203,3.0,4.0,83,0.00,,,0.00,VWS V14.01,2013-02-04 04:04:00,
2013-02-03 23:09:00,18.5,14.2,30.08,SSW,202,3.0,4.0,83,0.00,,,0.00,VWS V14.01,2013-02-04 04:09:00,
2013-02-03 23:14:00,18.5,14.2,30.08,SSW,209,1.0,4.0,83,0.00,,,0.00,VWS V14.01,2013-02-04 04:14:00,
2013-02-03 23:19:00,18.5,14.2,30.08,SW,220,2.0,5.0,83,0.00,,,0.00,VWS V14.01,2013-02-04 04:19:00,
2013-02-03 23:24:00,18.5,14.2,30.08,WSW,240,3.0,5.0,83,0.00,,,0.00,VWS V14.01,2013-02-04 04:24:00,
2013-02-03 23:29:00,18.5,14.2,30.08,SSW,204,2.0,4.0,83,0.00,,,0.00,VWS V14.01,2013-02-04 04:29:00,
2013-02-03 23:34:00,18.5,14.2,30.08,WSW,242,4.0,6.0,83,0.00,,,0.00,VWS V14.01,2013-02-04 04:34:00,
2013-02-03 23:39:00,18.6,14.3,30.08,SW,234,3.0,6.0,83,0.00,,,0.00,VWS V14.01,2013-02-04 04:39:00,
2013-02-03 23:44:00,18.6,14.6,30.08,SW,219,1.0,5.0,84,0.00,,,0.00,VWS V14.01,2013-02-04 04:44:00,
2013-02-03 23:49:00,18.7,14.7,30.08,SW,223,1.0,5.0,84,0.00,,,0.00,VWS V14.01,2013-02-04 04:49:00,
2013-02-03 23:54:00,18.8,14.8,30.08,WSW,242,4.0,5.0,84,0.00,,,0.00,VWS V14.01,2013-02-04 04:54:00,
2013-02-03 23:59:00,18.8,15.1,30.08,SSW,205,6.0,6.0,85,0.00,,,0.00,VWS V14.01,2013-02-04 04:59:00,